Home   Weather   Mutsamudu   Past weeks

Flag for Comoros Past Weather in Mutsamudu, Comoros — Yesterday and Last 2 Weeks

Now
77 °F

Warm.


Feels Like: 78 °F
Forecast: 79 / 83 °F
Wind: No wind

Location: Dzaoudzi / Pamanzi Mayotte

Current Time: Feb 22, 2017 at 2:32:34 am

Latest Report: Feb 22, 2017 at 2:00 am


Visibility: N/A

Pressure: 29.86 "Hg

Humidity: 89%

Dew Point: 73 °F

Location of MutsamuduLocation

Past Weather in Mutsamudu — Graph

°F

Mutsamudu Temperature Yesterday

Maximum temperature yesterday: 82 °F (at 8:00 am)
Minimum temperature yesterday: 75 °F (at 4:30 am)
Average temperature yesterday: 80 °F

High & Low Weather Summary for the Past Weeks

 TemperatureHumidityPressure
High91 °F (Feb 16, 12:00 pm)94% (Feb 8, 4:30 pm)29.98 "Hg (Feb 8, 4:30 pm)
Low75 °F (Feb 8, 4:20 pm)59% (Feb 15, 2:30 pm)29.74 "Hg (Feb 7, 2:30 pm)
Average83 °F76%29.86 "Hg
* Reported Feb 7 1:00 am — Feb 22 1:30 am, Mutsamudu, Weather by CustomWeather, © 2017

Note: Actual official high and low records may vary slightly from our data, if they occured in-between our weather recording intervals... More about our weather records

Advertising

Mutsamudu Weather History for the Previous 24 Hours

Scroll right to see more
 ConditionsComfort  
Time TempWeatherWind HumidityBarometerVisibility
1:30 am
Wed, Feb 22
77 °FWarm.2 mph89%29.86 "HgN/A
1:00 am77 °FWarm.No wind89%29.86 "HgN/A
12:30 am77 °FWarm.1 mph89%29.89 "HgN/A
12:00 am79 °FWarm.5 mph84%29.89 "HgN/A
11:30 pm
Tue, Feb 21
79 °FWarm.6 mph84%29.92 "HgN/A
11:00 pm79 °FWarm.2 mph84%29.92 "HgN/A
10:30 pm79 °FWarm.5 mph84%29.92 "HgN/A
10:00 pm79 °FWarm.3 mph84%29.92 "HgN/A
9:30 pm81 °FLight rain. Overcast.2 mph79%29.89 "HgN/A
9:00 pm81 °FWarm.8 mph79%29.89 "HgN/A
8:30 pm81 °FWarm.7 mph79%29.89 "HgN/A
8:00 pm81 °FWarm.6 mph79%29.86 "HgN/A
7:30 pm81 °FWarm.9 mph79%29.86 "HgN/A
7:00 pm81 °FWarm.3 mph74%29.83 "HgN/A
6:30 pm81 °FWarm.6 mph74%29.83 "HgN/A
6:00 pm81 °FMore clouds than sun.5 mph74%29.80 "HgN/A
5:30 pm81 °FMore clouds than sun.3 mph74%29.80 "HgN/A
5:00 pm81 °FMore clouds than sun.12 mph74%29.80 "HgN/A
4:30 pm81 °FMore clouds than sun.8 mph74%29.80 "HgN/A
4:00 pm82 °FMore clouds than sun.9 mph70%29.80 "HgN/A
3:30 pm82 °FMore clouds than sun.16 mph74%29.83 "HgN/A
3:00 pm82 °FMostly cloudy.13 mph74%29.83 "HgN/A
2:30 pm82 °FMostly cloudy.14 mph74%29.83 "HgN/A
2:00 pm82 °FMostly cloudy.16 mph74%29.83 "HgN/A
1:30 pm82 °FMostly cloudy.13 mph74%29.83 "HgN/A
1:00 pm82 °FLight rain. Mostly cloudy.12 mph74%29.86 "HgN/A
12:30 pm82 °FLight rain. More clouds than sun.12 mph74%29.86 "HgN/A
12:00 pm81 °FLight rain. Overcast.12 mph84%29.86 "HgN/A
11:30 am81 °FLight rain. Broken clouds.13 mph84%29.86 "HgN/A
11:00 am81 °FLight rain. Broken clouds.8 mph79%29.89 "HgN/A
10:30 am82 °FSprinkles. Partly sunny.7 mph74%29.89 "HgN/A
10:00 am82 °FPartly sunny.5 mph74%29.89 "HgN/A
9:00 am82 °FPartly sunny.5 mph74%29.92 "HgN/A
8:30 am82 °FPartly sunny.6 mph74%29.89 "HgN/A
8:00 am82 °FPartly sunny.6 mph74%29.89 "HgN/A
7:30 am81 °FBroken clouds.5 mph79%29.89 "HgN/A
7:00 am79 °FBroken clouds.5 mph84%29.86 "HgN/A
6:30 am77 °FMore clouds than sun.5 mph83%29.86 "HgN/A
6:00 am77 °FMostly cloudy.7 mph83%29.86 "HgN/A
5:30 am77 °FPassing clouds.12 mph83%29.86 "HgN/A
5:00 am77 °FWarm.10 mph89%29.86 "HgN/A
4:30 am75 °FMostly cloudy.10 mph94%29.83 "HgN/A
4:00 am77 °FHeavy rain. Fog.10 mph89%29.83 "Hg2 mi
3:30 am77 °FHeavy rain. Fog.7 mph89%29.83 "Hg1 mi
3:00 am79 °FMostly cloudy.13 mph89%29.83 "HgN/A
2:30 am77 °FPassing clouds.5 mph83%29.83 "HgN/A
2:00 am77 °FMostly cloudy.5 mph79%29.83 "HgN/A
Weather by CustomWeather, © 2017

See weather overviewHow to use our weather pages